SINOD-D 1

Last updated on Fri Jul 10 2026 00:03:49 GMT+0000 (Coordinated Universal Time)

1 40968U 15058E 26190.00525422 .00002945 00000+0 23989-3 0 9997 2 40968 64.7734 190.5790 0120564 44.5324 316.5402 14.96049923119921
UTC large
Height (km)
Speed (km/s)
/
Latitude / Longitude
Inclination (degrees)
Orbital Period (minutes)
Azimuth
Elevation
Range (km)
Doppler Factor

Next 0 passes for location: London (51.5072 / 0.1276)

No passes found over London.
SINOD-D 1